TimeEST,TemperatureF,Dew PointF,Humidity,Sea Level PressureIn,VisibilityMPH,Wind Direction,Wind SpeedMPH,Gust SpeedMPH,PrecipitationIn,Events,Conditions,WindDirDegrees,DateUTC
12:15 AM,64.4,64.4,100,30.08,0.8,Calm,Calm,-,N/A,,Overcast,0,2013-01-03 05:15:00
12:35 AM,64.4,64.4,100,30.07,0.8,Calm,Calm,-,N/A,,Overcast,0,2013-01-03 05:35:00
12:55 AM,64.4,64.4,100,30.07,1.5,Calm,Calm,-,N/A,,Overcast,0,2013-01-03 05:55:00
1:15 AM,64.4,64.4,100,30.06,2.0,Calm,Calm,-,N/A,,Overcast,0,2013-01-03 06:15:00
1:35 AM,64.4,64.4,100,30.06,1.5,Calm,Calm,-,N/A,,Overcast,0,2013-01-03 06:35:00
1:55 AM,64.4,64.4,100,30.07,0.8,Calm,Calm,-,N/A,,Overcast,0,2013-01-03 06:55:00
2:15 AM,64.4,64.4,100,30.06,0.5,NE,3.5,-,N/A,Fog,Fog,50,2013-01-03 07:15:00
2:35 AM,62.6,62.6,100,30.06,0.8,Calm,Calm,-,N/A,,Overcast,0,2013-01-03 07:35:00
2:55 AM,62.6,62.6,100,30.06,3.0,Calm,Calm,-,N/A,,Overcast,0,2013-01-03 07:55:00
3:15 AM,62.6,62.6,100,30.06,2.0,Calm,Calm,-,N/A,,Overcast,0,2013-01-03 08:15:00
3:35 AM,62.6,62.6,100,30.06,2.5,Calm,Calm,-,N/A,,Overcast,0,2013-01-03 08:35:00
3:55 AM,62.6,62.6,100,30.06,2.0,Calm,Calm,-,N/A,,Overcast,0,2013-01-03 08:55:00
4:15 AM,62.6,62.6,100,30.07,2.0,Calm,Calm,-,N/A,,Overcast,0,2013-01-03 09:15:00
4:35 AM,62.6,62.6,100,30.07,3.0,NNE,3.5,-,N/A,,Overcast,20,2013-01-03 09:35:00
4:55 AM,62.6,62.6,100,30.07,3.0,Calm,Calm,-,N/A,,Overcast,0,2013-01-03 09:55:00
5:15 AM,62.6,62.6,100,30.06,2.5,NE,3.5,-,N/A,,Overcast,40,2013-01-03 10:15:00
5:35 AM,62.6,62.6,100,30.06,3.0,East,3.5,-,N/A,,Overcast,90,2013-01-03 10:35:00
5:55 AM,62.6,62.6,100,30.07,5.0,Calm,Calm,-,N/A,,Overcast,0,2013-01-03 10:55:00
6:15 AM,62.6,62.6,100,30.08,5.0,Calm,Calm,-,N/A,,Overcast,0,2013-01-03 11:15:00
6:35 AM,62.6,62.6,100,30.08,5.0,Calm,Calm,-,N/A,,Overcast,0,2013-01-03 11:35:00
6:55 AM,62.6,62.6,100,30.09,5.0,Calm,Calm,-,N/A,,Overcast,0,2013-01-03 11:55:00
7:15 AM,62.6,62.6,100,30.10,5.0,Calm,Calm,-,N/A,,Overcast,0,2013-01-03 12:15:00
7:35 AM,62.6,62.6,100,30.11,4.0,Calm,Calm,-,N/A,,Overcast,0,2013-01-03 12:35:00
7:55 AM,62.6,62.6,100,30.10,2.0,Calm,Calm,-,N/A,,Overcast,0,2013-01-03 12:55:00
8:15 AM,62.6,62.6,100,30.11,3.0,Calm,Calm,-,N/A,,Overcast,0,2013-01-03 13:15:00
8:35 AM,62.6,62.6,100,30.11,4.0,Calm,Calm,-,N/A,,Overcast,0,2013-01-03 13:35:00
8:55 AM,64.4,62.6,94,30.10,4.0,SE,4.6,-,N/A,,Overcast,140,2013-01-03 13:55:00
9:15 AM,64.4,62.6,94,30.12,4.0,East,3.5,-,N/A,,Overcast,100,2013-01-03 14:15:00
9:35 AM,64.4,62.6,94,30.13,4.0,Calm,Calm,-,N/A,,Overcast,0,2013-01-03 14:35:00
9:55 AM,64.4,62.6,94,30.14,4.0,ESE,3.5,-,N/A,,Overcast,110,2013-01-03 14:55:00
10:15 AM,64.4,62.6,94,30.14,5.0,Calm,Calm,-,N/A,,Overcast,0,2013-01-03 15:15:00
10:35 AM,64.4,62.6,94,30.15,4.0,Calm,Calm,-,N/A,,Overcast,0,2013-01-03 15:35:00
10:55 AM,64.4,62.6,94,30.14,4.0,Calm,Calm,-,N/A,,Overcast,0,2013-01-03 15:55:00
11:15 AM,66.2,62.6,88,30.14,4.0,Calm,Calm,-,N/A,,Overcast,0,2013-01-03 16:15:00
11:35 AM,66.2,62.6,88,30.13,5.0,Calm,Calm,-,N/A,,Overcast,0,2013-01-03 16:35:00
11:55 AM,66.2,62.6,88,30.12,5.0,NNE,3.5,-,N/A,,Overcast,20,2013-01-03 16:55:00
12:15 PM,66.2,62.6,88,30.11,7.0,Calm,Calm,-,N/A,,Overcast,0,2013-01-03 17:15:00
12:35 PM,66.2,62.6,88,30.10,7.0,NNE,4.6,-,N/A,,Overcast,20,2013-01-03 17:35:00
12:55 PM,68.0,62.6,83,30.09,7.0,NE,4.6,-,N/A,,Overcast,40,2013-01-03 17:55:00
1:15 PM,68.0,62.6,83,30.09,7.0,NNE,4.6,-,N/A,,Overcast,30,2013-01-03 18:15:00
1:35 PM,68.0,62.6,83,30.09,7.0,Calm,Calm,-,N/A,,Overcast,0,2013-01-03 18:35:00
1:55 PM,68.0,62.6,83,30.09,7.0,NNE,5.8,-,N/A,,Overcast,30,2013-01-03 18:55:00
2:15 PM,66.2,62.6,88,30.09,7.0,NNE,5.8,-,N/A,,Overcast,20,2013-01-03 19:15:00
2:35 PM,62.6,60.8,94,30.10,5.0,North,11.5,-,N/A,Rain,Rain,360,2013-01-03 19:35:00
2:55 PM,60.8,60.8,100,30.11,3.0,North,9.2,-,N/A,Rain,Light Rain,360,2013-01-03 19:55:00
3:15 PM,60.8,60.8,100,30.11,5.0,North,11.5,-,N/A,,Light Drizzle,10,2013-01-03 20:15:00
3:35 PM,60.8,59.0,94,30.11,5.0,North,12.7,-,N/A,,Overcast,10,2013-01-03 20:35:00
3:55 PM,59.0,59.0,100,30.12,5.0,North,12.7,17.3,N/A,,Overcast,10,2013-01-03 20:55:00
4:15 PM,59.0,59.0,100,30.12,10.0,NNE,15.0,-,N/A,,Overcast,20,2013-01-03 21:15:00
4:35 PM,59.0,57.2,94,30.13,10.0,NNE,9.2,-,N/A,Rain,Rain,30,2013-01-03 21:35:00
4:55 PM,59.0,57.2,94,30.14,10.0,NNE,9.2,-,N/A,,Drizzle,20,2013-01-03 21:55:00
5:15 PM,59.0,57.2,94,30.14,10.0,NNE,11.5,-,N/A,,Light Drizzle,20,2013-01-03 22:15:00
5:35 PM,57.2,55.4,94,30.16,7.0,North,15.0,-,N/A,,Light Drizzle,10,2013-01-03 22:35:00
5:55 PM,55.4,55.4,100,30.16,7.0,NNE,10.4,18.4,N/A,Rain,Light Rain,30,2013-01-03 22:55:00
6:15 PM,55.4,55.4,100,30.17,7.0,NNE,8.1,-,0.01,Rain,Rain,30,2013-01-03 23:15:00
6:35 PM,55.4,55.4,100,30.17,7.0,NE,8.1,-,0.03,,Heavy Drizzle,40,2013-01-03 23:35:00
6:55 PM,55.4,55.4,100,30.18,7.0,NNE,9.2,-,0.04,Rain,Rain,30,2013-01-03 23:55:00
7:15 PM,55.4,55.4,100,30.18,7.0,NE,8.1,-,0.02,Rain,Rain,50,2013-01-04 00:15:00
7:35 PM,55.4,55.4,100,30.19,7.0,ENE,4.6,-,0.02,,Drizzle,60,2013-01-04 00:35:00
7:55 PM,55.4,55.4,100,30.19,7.0,ENE,3.5,-,0.03,,Heavy Drizzle,60,2013-01-04 00:55:00
8:15 PM,55.4,55.4,100,30.20,5.0,NE,5.8,-,0.01,,Heavy Drizzle,50,2013-01-04 01:15:00
8:35 PM,55.4,55.4,100,30.19,10.0,NE,4.6,-,0.01,,Overcast,50,2013-01-04 01:35:00
8:55 PM,55.4,55.4,100,30.20,10.0,NNE,5.8,-,0.01,,Overcast,30,2013-01-04 01:55:00
9:15 PM,55.4,55.4,100,30.20,10.0,NE,6.9,-,N/A,,Overcast,50,2013-01-04 02:15:00
9:35 PM,55.4,55.4,100,30.22,10.0,NE,6.9,-,N/A,Rain,Rain,40,2013-01-04 02:35:00
9:55 PM,55.4,55.4,100,30.23,7.0,North,3.5,-,0.02,,Heavy Drizzle,350,2013-01-04 02:55:00
10:15 PM,55.4,55.4,100,30.22,7.0,NNE,6.9,-,0.01,,Heavy Drizzle,20,2013-01-04 03:15:00
10:35 PM,55.4,55.4,100,30.23,7.0,North,9.2,-,0.01,,Overcast,10,2013-01-04 03:35:00
10:55 PM,55.4,55.4,100,30.21,7.0,North,6.9,-,0.01,,Overcast,10,2013-01-04 03:55:00
11:15 PM,55.4,55.4,100,30.22,10.0,NNE,5.8,-,N/A,,Overcast,30,2013-01-04 04:15:00
11:35 PM,55.4,55.4,100,30.22,10.0,NNE,9.2,-,N/A,,Overcast,20,2013-01-04 04:35:00
11:55 PM,55.4,55.4,100,30.21,10.0,NNE,8.1,-,N/A,Rain,Light Rain,30,2013-01-04 04:55:00